Location: Navajo
(48.7922°N, 105.0603°W)
Time: 21:59:54
(UTC+00:00)

QB50P2 - Pass Details

Date: 27 June 2022
Orbit: 590 x 605 km, 97.9° (Epoch: 15 August)

Event Time Altitude Azimuth Distance (km) Brightness Sun altitude
Rises 07:25:52 0° 27° (NNE) 2,857 ? -17.7°
Reaches altitude 10° 07:28:34 10° 45° (NE) 1,952 ? -17.7°
Maximum altitude 07:31:40 19° 92° (E) 1,433 ? -17.6°
Enters shadow 07:33:42 14° 127° (SE) 1,677 ? -17.6°
